COSMOS 2251 DEB, 38062

Orbit data source: Space-Track

COSMOS 2251 DEB, 38062 is space debris in LEO originally from a launch on Wed, 16 Jun 1993 UTC launched from the Plesetsk Missile And Space Complex (PKMTR). The debris from Iridium 33, an American commercial communications satellite, has been tracked extensively since its accidental collision with the defunct Russian satellite Cosmos 2251 in 2009. This event, occurring at high speed in low Earth orbit (LEO), generated thousands of pieces of space debris, significantly increasing the risk of further collisions. The Iridium 33 debris cloud has impacted space traffic management and orbital debris mitigation strategies, making it a subject of ongoing study in space situational awareness.

Loading next visibility...
Identifier
38062, 1993-036BRU
Orbit
LEO
Country
Flag of CISCIS
Related business
Manufacturer
Unknown
Mission
Spacecraft
Bus & Motor
Unknown
Mass
Unknown
Launch date (UTC)
1993-06-16 (33 years ago)
Launch vehicle
Unknown
Launch site
Plesetsk Missile And Space Complex (PKMTR)
Object type
Payload
Rocket body
Debris
Shape & HBR
Unknown shape, 0.1 m
Radar Cross Section
Small (<0.1 m²)

Expand to show TLE details & history
Last TLE update: 3 days ago

TLE from 3 days ago
0 COSMOS 2251 DEB
1 38062U 93036BRU 25351.08644437  .00020809  00000-0  18937-2 0  9991
2 38062  74.0085 281.6883 0012765  50.5623 328.1429 14.95076851630951
Epoch: 2025-12-17T02:04Z
TLE epoch observation values (Epoch: 2025-12-17T02:04:28.793Z)
Latitude
17.87997°
Longitude
169.88271°
Altitude
576.693 km
Speed
7.578 km/s
True Right ascension
19h 07m 51s
True Declination
17° 46' 38"
Sunlit
Object was in daylight at epoch
Visualization orbit readout
Latitude
Unknown
Longitude
Unknown
Altitude
Unknown
Speed
Unknown
Apparent Right ascension
Unknown
Apparent Declination
Unknown
Sunlit
N/A
Visualization observer readout
Local Sidereal Time
05:15:09
Azimuth
Unknown
Elevation
Unknown
Doppler factor
Unknown
Orbital elements
Apogee altitude
588.577 km
Perigee altitude
570.814 km
Semi-major axis
6,957.833 km
Eccentricity
0.00128
Inclination
74.0085°
RAAN
281.6883°
Arg. of periapsis
50.5623°
True anomaly
328.06559°
Mean anomaly
328.1429°
Eccentric anomaly
328.10426°
Mean motion
3.73966 °/min
Orbital period
96.27 mins
BSTAR
0.0018937
Loading maneuver chart data...
Computing Atmospheric mass density...

Documentation

Showing up to 5 results
|